TimeEST,TemperatureF,Dew PointF,Humidity,Sea Level PressureIn,VisibilityMPH,Wind Direction,Wind SpeedMPH,Gust SpeedMPH,PrecipitationIn,Events,Conditions,WindDirDegrees,DateUTC
12:53 AM,75.9,66.0,71,30.11,10.0,East,12.7,19.6,N/A,,Scattered Clouds,80,2012-11-13 05:53:00
1:53 AM,75.9,64.9,69,30.08,10.0,East,9.2,-,N/A,,Scattered Clouds,90,2012-11-13 06:53:00
2:53 AM,75.9,64.9,69,30.07,10.0,East,9.2,-,N/A,,Scattered Clouds,90,2012-11-13 07:53:00
3:53 AM,75.0,64.9,71,30.07,10.0,East,10.4,-,N/A,,Scattered Clouds,80,2012-11-13 08:53:00
4:53 AM,75.0,66.0,73,30.08,10.0,ENE,8.1,-,N/A,,Scattered Clouds,70,2012-11-13 09:53:00
5:53 AM,75.0,64.0,69,30.09,10.0,ENE,9.2,-,N/A,,Partly Cloudy,60,2012-11-13 10:53:00
6:53 AM,75.0,64.9,71,30.10,10.0,ENE,5.8,-,N/A,,Partly Cloudy,60,2012-11-13 11:53:00
7:53 AM,77.0,64.0,64,30.12,10.0,ENE,11.5,-,N/A,,Scattered Clouds,60,2012-11-13 12:53:00
8:53 AM,78.1,64.0,62,30.14,10.0,East,12.7,-,N/A,,Scattered Clouds,80,2012-11-13 13:53:00
9:53 AM,78.1,64.0,62,30.14,10.0,ENE,12.7,-,N/A,,Partly Cloudy,60,2012-11-13 14:53:00
10:53 AM,79.0,64.0,60,30.13,10.0,ENE,12.7,-,N/A,,Partly Cloudy,70,2012-11-13 15:53:00
11:53 AM,79.0,63.0,58,30.10,10.0,ENE,11.5,-,N/A,,Partly Cloudy,70,2012-11-13 16:53:00
12:53 PM,80.1,63.0,56,30.08,10.0,East,13.8,-,N/A,,Partly Cloudy,80,2012-11-13 17:53:00
1:53 PM,79.0,64.0,60,30.06,10.0,ENE,12.7,-,N/A,,Partly Cloudy,60,2012-11-13 18:53:00
2:53 PM,78.1,64.9,64,30.05,10.0,NE,13.8,-,N/A,,Partly Cloudy,40,2012-11-13 19:53:00
3:53 PM,78.1,64.0,62,30.05,10.0,ENE,13.8,-,N/A,,Scattered Clouds,60,2012-11-13 20:53:00
4:53 PM,78.1,64.0,62,30.06,10.0,ENE,9.2,-,N/A,,Scattered Clouds,60,2012-11-13 21:53:00
5:53 PM,77.0,64.0,64,30.06,10.0,NE,10.4,-,N/A,,Scattered Clouds,50,2012-11-13 22:53:00
6:53 PM,75.9,64.9,69,30.06,10.0,NE,9.2,-,N/A,,Scattered Clouds,50,2012-11-13 23:53:00
7:53 PM,77.0,64.0,64,30.08,10.0,ENE,11.5,-,N/A,,Partly Cloudy,60,2012-11-14 00:53:00
8:53 PM,77.0,63.0,62,30.08,10.0,ENE,12.7,-,N/A,,Scattered Clouds,60,2012-11-14 01:53:00
9:53 PM,75.9,64.0,67,30.08,10.0,East,10.4,-,N/A,,Scattered Clouds,80,2012-11-14 02:53:00
10:53 PM,75.9,64.0,67,30.08,10.0,ENE,9.2,-,N/A,,Partly Cloudy,60,2012-11-14 03:53:00
11:53 PM,75.9,63.0,64,30.08,10.0,ENE,9.2,-,N/A,,Scattered Clouds,60,2012-11-14 04:53:00